Flag for U.S.A. Weather past 2 weeks in Mansfield, Texas, U.S.A.

39 °F

Rain. Mostly cloudy.

Feels Like: 32 °F
Forecast: 41 / 43 °F
Wind: 10 mph from Northwest

Location: Burleson-Rendon

Current Time: Nov 29, 2015 at 8:33:46 AM

Latest Report: Nov 29, 2015 at 7:50 AM

Visibility: 4 mi

Pressure: 30.22 "Hg

Humidity: 93%

Dew point: 37 °F

Location of MansfieldLocation

Historic Weather in Mansfield — Graph


Mansfield temperature yesterday

Maximum temperature yesterday: 40 °F (at 8:35 PM)
Minimum temperature yesterday: 36 °F (at 3:15 AM)
Average temperature yesterday: 38 °F

Past Weeks' High & Low Weather Summary

High75 °F (Nov 25, 2:55 PM)100% (Nov 16, 6:50 AM)30.39 "Hg (Nov 16, 6:50 AM)
Low27 °F (Nov 22, 6:46 AM)28% (Nov 22, 12:50 PM)29.51 "Hg (Nov 17, 3:15 AM)
Average54 °F76%30.09 "Hg
* Reported Nov 14 6:51 AM — Nov 29 6:50 AM, Mansfield, Weather by CustomWeather, © 2015

Note: Actual official high and low records may vary slightly from our data, if they occured in-between our weather recording intervals... More about our weather records


Mansfield weather history for previous 24 hours

Time TempWeatherWind HumidityBarometerVisibility
6:50 AM
Sun, Nov 29
39 °FRain. Low clouds.7 mph93%30.23 "Hg4 mi
5:35 AM39 °FDrizzle. Low clouds.5 mph95%30.19 "Hg4 mi
5:15 AM39 °FDrizzle. Low clouds.6 mph95%30.18 "Hg5 mi
4:55 AM39 °FLight rain. Overcast.3 mph95%30.19 "Hg7 mi
4:35 AM39 °FRain. Overcast.6 mph95%30.20 "Hg5 mi
4:15 AM39 °FDrizzle. Mostly cloudy.7 mph92%30.22 "Hg7 mi
3:55 AM39 °FDrizzle. Overcast.10 mph91%30.22 "Hg10 mi
3:35 AM39 °FMostly cloudy.8 mph93%30.22 "Hg10 mi
3:15 AM39 °FOvercast.14 mph92%30.23 "Hg10 mi
2:55 AM39 °FMostly cloudy.9 mph91%30.23 "Hg10 mi
2:35 AM39 °FDrizzle. Mostly cloudy.7 mph91%30.24 "Hg5 mi
2:15 AM39 °FDrizzle. Mostly cloudy.9 mph90%30.23 "Hg7 mi
1:55 AM39 °FMostly cloudy.8 mph90%30.24 "Hg10 mi
12:55 AM39 °FOvercast.8 mph90%30.24 "Hg10 mi
12:15 AM39 °FOvercast.7 mph91%30.24 "Hg10 mi
11:55 PM
Sat, Nov 28
39 °FOvercast.10 mph90%30.22 "Hg10 mi
11:15 PM40 °FLight rain. Overcast.13 mph89%30.27 "Hg10 mi
10:55 PM40 °FOvercast.12 mph90%30.27 "Hg10 mi
10:15 PM40 °FLow clouds.14 mph90%30.29 "Hg10 mi
9:55 PM40 °FLow clouds.8 mph90%30.29 "Hg10 mi
9:15 PM40 °FOvercast.10 mph90%30.27 "Hg10 mi
8:55 PM40 °FOvercast.10 mph89%30.25 "Hg10 mi
8:35 PM40 °FMostly cloudy.10 mph89%30.26 "Hg10 mi
8:15 PM40 °FMostly cloudy.10 mph89%30.25 "Hg10 mi
7:55 PM40 °FMostly cloudy.9 mph90%30.24 "Hg10 mi
7:35 PM40 °FMostly cloudy.8 mph91%30.25 "Hg10 mi
7:15 PM40 °FMostly cloudy.8 mph90%30.24 "Hg10 mi
6:49 PM39 °FOvercast.9 mph93%30.23 "Hg7 mi
4:49 PM39 °FLight rain. Low clouds.10 mph93%30.22 "Hg5 mi
3:49 PM39 °FHeavy rain. Overcast.13 mph93%30.23 "Hg3 mi
2:50 PM39 °FLight rain. Overcast.9 mph93%30.23 "Hg10 mi
1:52 PM39 °FMostly cloudy.9 mph87%30.23 "Hg10 mi
12:53 PM39 °FLow clouds.13 mph87%30.25 "Hg10 mi
11:53 AM37 °FLow clouds.13 mph93%30.28 "Hg10 mi
10:54 AM37 °FLow clouds.12 mph93%30.29 "Hg10 mi
9:54 AM37 °FFog.13 mph93%30.29 "Hg5 mi
8:50 AM37 °FLight rain. Low clouds.17 mph93%30.27 "Hg5 mi
Weather by CustomWeather, © 2015

See weather overviewHow to use our weather pages